Regional Weather Roundup
Issued by NWS State College, PA

Home | Current Version | Previous Version | Text Only | Print | Product List | Glossary On
Versions: 1 2 3 4 5 6 7 8 9 10 11 12 13 14 15 16 17 18 19 20 21 22 23 24 25 26 27 28 29 30 31 32 33 34 35 36 37 38 39 40 41 42 43 44 45 46 47 48 49 50
000
ASUS41 KCTP 251610
RWRCTP

REGIONAL WEATHER ROUNDUP
NATIONAL WEATHER SERVICE STATE COLLEGE PA
1100 AM EST SUN JAN 25 2015

Note: "fair" indicates few or no clouds below 12,000 feet with no
significant weather and/or obstructions to visibility.

* = STATION THAT DOES NOT REPORT PRECIPITATION /E.G. RAIN...SNOW...ETC/
    THUNDER OR FOG.

PAZ002>004-007>009-013>016-020>023-029>032-251700-
WESTERN PENNSYLVANIA

CITY           SKY/WX    TMP DP  RH WIND       PRES   REMARKS
ERIE           CLOUDY    22  14  71 NE14      29.90R WCI   9
MEADVILLE      CLOUDY    24  19  81 N12       29.81R WCI  13
FRANKLIN*      CLOUDY    27  21  80 CALM      29.81R
NEW CASTLE     MIX PCPN  30  28  92 N10       29.82R
BEAVER COUNTY  DRZL/FOG  34  32  93 CALM      29.79R VSB 3/4
BUTLER*        CLOUDY    34  30  86 CALM      29.81R VSB 1
PITTSBURGH INT CLOUDY    34  31  88 SW5       29.80R FOG
PITTSBURGH     CLOUDY    34  28  79 SW7       29.79R HAZE
INDIANA*       FOG       34  34 100 SW6       29.82R VSB 1/2
LATROBE        CLOUDY    32  32 100 SW8       29.82R FOG
WASHINGTON CO* CLOUDY    36  30  80 SW8       29.82R
$$

PAZ004>006-010>012-017>019-024>028-033>037-041-042-045-046-049>053-251700-
CENTRAL PENNSYLVANIA

CITY           SKY/WX    TMP DP  RH WIND       PRES   REMARKS
BRADFORD       CLOUDY    23  17  78 N9        29.76R WCI  13
DUBOIS         CLOUDY    28  24  85 N12       29.76R
CLEARFIELD     CLOUDY    31  25  78 N12       29.77R
JOHNSTOWN      FRZ RAIN  31  29  92 W8        29.74R VSB 1/4
ALTOONA        CLOUDY    34  32  92 SW6       29.79R FOG
STATE COLLEGE  LGT SNOW  34  30  86 W5        29.78R
WILLIAMSPORT   CLOUDY    37  21  52 NW8       29.79R
SELINSGROVE    CLOUDY    39  31  72 VRB3      29.80R
FT INDIANTOWN  CLOUDY    38  30  72 SW8       29.80R
CAPITAL CITY   CLOUDY    39  30  70 W6        29.82R
HARRISBURG     CLOUDY    37  29  72 SW13      29.82R
YORK           CLOUDY    39  30  70 SW6       29.82R
$$

PAZ038>040-043-044-047-048-054-055-060>062-067>071-251700-
EASTERN PENNSYLVANIA

CITY           SKY/WX    TMP DP  RH WIND       PRES   REMARKS
SCRANTON       SUNNY     33  15  47 N16G25    29.76R
MOUNT POCONO   MOSUNNY   30  12  47 NW18G26   29.68R
ALLENTOWN      CLOUDY    40  27  59 W8        29.77R
QUAKERTOWN*    NOT AVBL
READING        CLOUDY    39  29  67 SW9       29.79R
LANCASTER      CLOUDY    38  29  70 W13       29.81R
COATESVILLE    MOSUNNY   41  32  70 W9        29.81R
POTTSTOWN      CLOUDY    38  28  67 W5        29.81R
BLUE BELL      CLOUDY    41  32  70 W5        29.80R
DOYLESTOWN     CLOUDY    37  30  75 W7        29.77R
WILLOW GROVE   NOT AVBL
NORTH PHILA    CLOUDY    42  27  55 W15       29.82R
PHILADELPHIA   CLOUDY    42  30  62 SW14      29.83R
$$



USA.gov is the U.S. government's official web portal to all federal, state and local government web resources and services.